Location: Zagreb
(45.8000°N, 16.0000°E)
Time: 12:29:44
(UTC+01:00)

Vanguard 1 Rocket - Pass Details

Date: 10 October 2020
Orbit: 656 x 4221 km, 34.3° (Epoch: 28 October)

Event Time Altitude Azimuth Distance (km) Brightness Sun altitude
Rises 18:30:32 0° 259° (W) 4,359 14.0 -2.9°
Reaches altitude 10° 18:32:59 10° 253° (WSW) 3,700 12.4 -3.3°
Maximum altitude 18:42:37 49° 182° (S) 2,813 10.0 -5.0°
Drops below altitude 10° 19:00:40 10° 116° (ESE) 6,644 11.2 -8.1°
Enters shadow 19:05:13 - 113° (ESE) 7,674 11.5 -8.9°
Sets 19:07:00 0° 112° (ESE) 8,061 - -9.2°
